sat.trackr.live / text

‹ back to catalog

STARLINK-6332

NORAD 57339 · 2023-099M

PAYLOAD ACTIVE UNKNOWN

§ Identity

Operator
Country
US
Launch date
2023-07-16
Launch site
AFETR
Launch vehicle
Mass (kg)
RCS (m²)

Purposes: comms

External: N2YO · Heavens-Above · Gunter

§ Orbital elements

Epoch: 2026-09-20T04:55:42.472416Z

Period
94.27 min
Inclination
43.0016°
Eccentricity
0.0001298
Mean motion
15.27571126 rev/d
Perigee alt
482.2 km
Apogee alt
484.0 km
Semi-major
6,861.2 km
B*
1.4619e-6
RAAN
234.0020°
Arg perigee
268.5980°
Mean anomaly
91.4723°
Rev number
17,582

§ Raw data

STARLINK-63321 57339U 23099M   26263.20535269 -.00000222  00000+0  14619-5 0  99932 57339  43.0016 234.0020 0001298 268.5980  91.4723 15.27571126175828

JSON: /api/v1/satellites/57339 · /tle

For live sub-satellite position, see the globe view (requires WebGL).

§ Visibility from observer

Set your observer location to see the next 7 days of passes ≥ 10°. The values pass through the URL so the page stays shareable.

No JS? Fill the form by hand. The geolocation button needs JavaScript.